TimeEDT,TemperatureF,Dew PointF,Humidity,Sea Level PressureIn,VisibilityMPH,Wind Direction,Wind SpeedMPH,Gust SpeedMPH,PrecipitationIn,Events,Conditions,WindDirDegrees,DateUTC
12:54 AM,69.1,66.0,90,30.13,10.0,South,6.9,-,N/A,,Clear,170,2013-08-22 04:54:00
1:54 AM,69.1,66.9,93,30.13,10.0,South,5.8,-,N/A,,Clear,170,2013-08-22 05:54:00
2:54 AM,71.1,68.0,90,30.11,10.0,South,5.8,-,N/A,,Clear,170,2013-08-22 06:54:00
3:54 AM,70.0,68.0,93,30.11,10.0,SSW,5.8,-,N/A,,Clear,200,2013-08-22 07:54:00
4:54 AM,69.1,68.0,96,30.12,9.0,SSW,5.8,-,N/A,,Clear,210,2013-08-22 08:54:00
5:54 AM,70.0,68.0,93,30.11,7.0,SW,6.9,-,N/A,,Clear,220,2013-08-22 09:54:00
6:34 AM,70.0,68.0,93,30.14,5.0,SW,4.6,-,N/A,,Partly Cloudy,220,2013-08-22 10:34:00
6:54 AM,70.0,68.0,93,30.12,4.0,SW,5.8,-,N/A,,Scattered Clouds,220,2013-08-22 10:54:00
7:08 AM,69.1,68.0,96,30.15,2.0,SSW,5.8,-,N/A,,Mostly Cloudy,210,2013-08-22 11:08:00
7:38 AM,70.0,69.1,97,30.16,1.0,WSW,4.6,-,N/A,,Overcast,240,2013-08-22 11:38:00
7:45 AM,70.0,69.1,97,30.16,0.8,WSW,5.8,-,N/A,,Mist,250,2013-08-22 11:45:00
7:54 AM,71.1,70.0,96,30.14,0.5,WSW,4.6,-,N/A,Fog,Fog,240,2013-08-22 11:54:00
8:08 AM,71.1,70.0,96,30.16,1.2,WSW,5.8,-,N/A,,Overcast,240,2013-08-22 12:08:00
8:26 AM,72.0,70.0,93,30.16,0.8,WSW,5.8,-,N/A,,Overcast,240,2013-08-22 12:26:00
8:54 AM,73.0,71.1,93,30.13,0.8,WSW,5.8,-,N/A,,Overcast,240,2013-08-22 12:54:00
9:01 AM,73.0,71.1,93,30.15,1.0,WSW,6.9,-,N/A,,Overcast,250,2013-08-22 13:01:00
9:26 AM,73.9,72.0,93,30.15,2.0,WSW,8.1,-,N/A,,Overcast,250,2013-08-22 13:26:00
9:54 AM,75.9,72.0,87,30.13,6.0,WSW,6.9,-,N/A,,Mostly Cloudy,250,2013-08-22 13:54:00
10:10 AM,77.0,72.0,84,30.15,8.0,WSW,6.9,-,N/A,,Scattered Clouds,240,2013-08-22 14:10:00
10:54 AM,80.1,73.0,79,30.12,10.0,SW,4.6,-,N/A,,Unknown,230,2013-08-22 14:54:00
11:54 AM,82.9,72.0,69,30.13,10.0,West,4.6,-,N/A,,Scattered Clouds,280,2013-08-22 15:54:00
12:54 PM,84.9,70.0,61,30.12,10.0,Variable,5.8,-,N/A,,Scattered Clouds,0,2013-08-22 16:54:00
1:54 PM,84.9,69.1,59,30.10,10.0,West,6.9,-,N/A,,Scattered Clouds,280,2013-08-22 17:54:00
2:54 PM,84.0,69.1,61,30.08,10.0,WNW,6.9,-,N/A,,Overcast,290,2013-08-22 18:54:00
3:21 PM,87.1,66.9,51,30.11,10.0,West,6.9,-,N/A,Thunderstorm,Scattered Clouds,260,2013-08-22 19:21:00
3:40 PM,87.1,66.0,49,30.10,10.0,West,11.5,-,N/A,,Scattered Clouds,280,2013-08-22 19:40:00
3:54 PM,87.1,68.0,53,30.06,10.0,NW,9.2,-,N/A,,Partly Cloudy,310,2013-08-22 19:54:00
4:54 PM,86.0,68.0,55,30.04,10.0,West,8.1,-,N/A,,Clear,270,2013-08-22 20:54:00
5:54 PM,82.0,66.9,60,30.04,10.0,NNE,6.9,-,N/A,,Mostly Cloudy,20,2013-08-22 21:54:00
6:54 PM,82.0,69.1,65,30.03,10.0,South,3.5,-,N/A,,Scattered Clouds,190,2013-08-22 22:54:00
7:54 PM,81.0,69.1,67,30.04,10.0,Calm,Calm,-,N/A,,Clear,0,2013-08-22 23:54:00
8:19 PM,81.0,70.0,69,30.07,10.0,South,3.5,-,N/A,Thunderstorm,Partly Cloudy,170,2013-08-23 00:19:00
8:35 PM,81.0,69.1,67,30.07,10.0,Calm,Calm,-,N/A,,Partly Cloudy,0,2013-08-23 00:35:00
8:54 PM,77.0,70.0,79,30.05,8.0,WNW,4.6,-,0.00,Rain,Light Rain,300,2013-08-23 00:54:00
9:54 PM,75.9,70.0,82,30.04,10.0,East,4.6,-,0.00,,Partly Cloudy,90,2013-08-23 01:54:00
10:54 PM,73.9,70.0,87,30.04,7.0,Calm,Calm,-,N/A,,Clear,0,2013-08-23 02:54:00
11:54 PM,73.0,70.0,90,30.04,6.0,SW,3.5,-,N/A,,Clear,230,2013-08-23 03:54:00